AirNav   Air Wisconsin pilot careers
 
 642 users online  

UT00 Swains Creek Airport
Alton, Utah, USA

GOING TO ALTON?


FAA INFORMATION EFFECTIVE 07 DECEMBER 2017

Location

FAA Identifier: UT00
Lat/Long: 37-28-19.9310N / 112-37-19.7650W
37-28.332183N / 112-37.329417W
37.4722031 / -112.6221569
(estimated)
Elevation: 7780 ft. / 2371 m (estimated)
Variation: 14E (1985)
From city: 7 miles NW of ALTON, UT
Time zone: UTC -7 (UTC -6 during Daylight Saving Time)
Zip code: 84762

Airport Operations

Airport use: Private use. Permission required prior to landing
Activation date: 03/1973
Control tower: no
ARTCC: SALT LAKE CITY CENTER
FSS: CEDAR CITY FLIGHT SERVICE STATION
Attendance: UNATNDD
Wind indicator: yes
Segmented circle: no

Nearby radio navigation aids

VOR radial/distance  VOR name  Freq  Var
BCEr214/20.0BRYCE CANYON VORTAC112.8015E
EHKr116/28.4ENOCH VOR/DME117.3016E

 
NDB name  Hdg/Dist  Freq  Var  ID
COLORADO CITY018/35.940313EAZC .- --.. -.-.

Airport Services

Airframe service: NONE
Powerplant service: NONE

Runway Information

Runway 1/19

Dimensions: 5600 x 50 ft. / 1707 x 15 m
Surface: dirt, in good condition
RUNWAY 1  RUNWAY 19
Traffic pattern: rightleft
Obstructions: 200 ft. trees, 1200 ft. from runway, 8:1 slope to clear
+150' TREES 100' LEFT OF CNTRLN EXTNDD.
15 ft. road, 25 ft. from runway, 2:1 slope to clear

Airport Ownership and Management from official FAA records

Ownership: Privately-owned
Owner: SWAINS CREEK PINES LOT OWNERS
PO BOX 1164
DUCK CREEK VILLAGE, UT 84762
Phone (435) 682-3127
Manager: ANDREW OSTERHOUT
PO BOX 1164
DUCK CREEK VILLAGE, UT 84762
Phone 435-682-3127

Airport Operational Statistics

Aircraft operations: avg 37/week
92% transient general aviation
8% local general aviation

Additional Remarks

RWY COND: GOOD; TAKEOFF TO NORTH & LAND TO SOUTH ADVISABLE DUE TO RWY GRADIENT AND TERRAIN RISE TO SOUTH.

Instrument Procedures

There are no published instrument procedures at UT00.

Some nearby airports with instrument procedures:

U55 - Panguitch Municipal Airport (25 nm NE)
KCDC - Cedar City Regional Airport (26 nm NW)
KBCE - Bryce Canyon Airport (27 nm NE)
KKNB - Kanab Municipal Airport (28 nm S)
KAZC - Colorado City Municipal Airport (36 nm SW)
 
Loc | Ops | Rwys | IFR | FBO | Links
Com | Nav | Svcs | Stats | Notes


 
Area around UT00 (Swains Creek Airport)
 
Road maps at: MapQuest Bing Google
 
Aerial photo
No photo
 
Sectional chart

 
Airport distance calculator
Flying to Swains Creek Airport? Find the distance to fly.

From to UT00

Sunrise and sunset
Times for 12-Dec-2017
 Local
(UTC-7)
 Zulu
(UTC)
Morning civil twilight07:0814:08
Sunrise07:3714:37
Sunset17:1200:12
Evening civil twilight17:4100:41

Current date and time
Zulu (UTC)  12-Dec-2017 12:31:32
Local (UTC-7)  12-Dec-2017 05:31:32
 
METAR
KBCE 
26nm NE 
121153Z AUTO 26007KT 10SM CLR M10/M19 A3055 RMK AO2 SLP324 T11001194 11072 21111 58003
KCDC 
27nm NW 
121153Z AUTO 06003KT 10SM CLR M09/M14 A3052 RMK AO2 SLP359 T10891144 11039 21106 58000
KAZC 
36nm SW 
121215Z AUTO 10004KT 10SM CLR M11/M24 A3048 RMK AO2
TAF
KBCE 
26nm NE 
121131Z 1212/1312 28007KT P6SM SKC FM121800 33008KT P6SM SKC FM130100 30007KT P6SM SKC
KCDC 
27nm NW 
121131Z 1212/1312 VRB05KT P6SM SKC
NOTAMs
Click for the latest NOTAMs
NOTAMs are issued by the DoD/FAA and will open in a separate window not controlled by AirNav.

 

 
 

Would you like to see your business listed on this page?

 If your business provides an interesting product or service to pilots, flight crews, aircraft, or users of the Swains Creek Airport, you should consider listing it here.  To start the listing process, click on the button below
 
Add a business
 

Other Pages about Swains Creek Airport

Update a link
 
Copyright © AirNav, LLC. All rights reserved. Privacy Policy  Contact